Location: Overspoor
(51.4747°N, 5.6641°E)
Time: 08:06:05
(UTC+02:00)

N. Korean satellite - Pass Details

Date: 16 January 2022
Orbit: 438 x 477 km, 97.3° (Epoch: 23 May)

Event Time Altitude Azimuth Distance (km) Brightness Sun altitude
Rises 06:54:53 0° 4° (N) 2,599 10.2 -15.0°
Reaches altitude 10° 06:57:10 10° 352° (N) 1,722 9.1 -14.7°
Maximum altitude 07:00:18 26° 294° (WNW) 1,021 7.6 -14.2°
Enters shadow 07:01:05 24° 272° (W) 1,079 7.7 -14.1°
